Simultaneous Nadir Overpasses (SNOs) Predictions

Prediction of SNOs between METOP-A and NOAA-19 Satellite Orbit:

Table of predicted SNOs for the next 14.0 days since TLE Epoch: 2/28/2020
Index Date (METOP-A) Time (METOP-A) Lat,Lon (METOP-A) SZA (METOP-A ) Date (NOAA-19) Time (NOAA-19) Lat,Lon (NOAA-19) SZA (NOAA-19 ) Distance(km) Time Diff (sec)
1 03/06/2020 04:23:34 80.35, 127.65 85.96 03/06/2020 04:22:20 80.34, 127.76 85.95 2.30 74
2 03/06/2020 05:14:15 -80.35, -65.01 94.05 03/06/2020 05:13:26 -80.35, -65.15 94.07 2.62 49
3 03/06/2020 06:04:56 80.34, 102.19 85.92 03/06/2020 06:04:21 80.35, 102.14 85.92 1.06 35
4 03/06/2020 06:55:37 -80.34, -90.48 94.10 03/06/2020 06:55:26 -80.34, -90.43 94.10 1.16 11
5 03/06/2020 07:46:18 80.33, 76.72 85.88 03/06/2020 07:46:21 80.34, 76.87 85.89 2.74 3
6 03/06/2020 08:36:59 -80.33,-115.94 94.14 03/06/2020 08:37:27 -80.34,-116.04 94.13 2.18 28
7 03/06/2020 09:27:40 80.32, 51.26 85.84 03/06/2020 09:28:22 80.34, 51.25 85.87 2.48 42
8 03/06/2020 10:18:21 -80.32,-141.41 94.18 03/06/2020 10:19:27 -80.33,-141.31 94.16 2.01 66




NCC Satellite Simultaneous Nadir Overpasses (SNOs) Prediction Service
